NORTHEAST SUFFOLK  -  Special Weather Statement Special Weather Statement        NORTHERN NASSAU  -  Special Weather Statement Special Weather Statement        NORTHWEST SUFFOLK  -  Special Weather Statement Special Weather Statement        SOUTHEAST SUFFOLK  -  Special Weather Statement Special Weather Statement        SOUTHERN NASSAU  -  Special Weather Statement Special Weather Statement        SOUTHWEST SUFFOLK  -  Special Weather Statement Special Weather Statement      

Active alerts

Northern Nassau
  Details for Northern Nassau Special Weather Statement
Southern Nassau
  Details for Southern Nassau Special Weather Statement
Northwest Suffolk
  Details for Northwest Suffolk Special Weather Statement
Southwest Suffolk
  Details for Southwest Suffolk Special Weather Statement
Northeast Suffolk
  Details for Northeast Suffolk Special Weather Statement
Southeast Suffolk
  Details for Southeast Suffolk Special Weather Statement


WXM80 ListenWXM80 Stop

You find our weather info also at:

UK Metoffice

WeatherCloud

Weather Underground

Northeastern Weather Network

AWEKAS

Citizen Weather Observer Program (CWOP)

HAMweather, WeatherForYou, PWS Weather


Weather Underground History page Text

Daily Summary for December 10, 2016 Units:  English    Metric   Both
« Previous Day
Next Day »
Daily Weekly Monthly Yearly Custom
  High: Low: Average:
Temperature: 35.7 °F 28.9 °F 31.8 °F
Dew Point: 24.2 °F 18.2 °F 21.1 °F
Humidity: 75 % 52 % 65 %
Wind Speed: 9.4 mph 0.2 mph 4.8 mph
Wind Gust: 19.6 mph - -
Wind:- - WNW
Pressure: 30.43 in 30.23 in -
Precipitation: 0.00 in    
Historical Graphs
 
 
Tabular Data for December 10, 2016
Time Temperature Dew Point Pressure Wind Wind Speed Wind Gust Humidity Rainfall Rate (Hourly)
00:02 30.0 °F 18.2 °F 30.23 in NW 5.7 mph 13.8 mph 61 % 0.00 in
00:07 30.0 °F 18.2 °F 30.23 in WSW 8.8 mph 16.0 mph 61 % 0.00 in
00:12 29.9 °F 18.5 °F 30.23 in WNW 7.5 mph 11.5 mph 62 % 0.00 in
00:17 30.0 °F 18.9 °F 30.23 in NNW 5.0 mph 8.1 mph 63 % 0.00 in
00:22 30.0 °F 18.5 °F 30.23 in West 1.8 mph 11.5 mph 62 % 0.00 in
00:28 29.9 °F 18.8 °F 30.23 in North 5.2 mph 15.0 mph 63 % 0.00 in
00:33 29.9 °F 19.2 °F 30.24 in NNW 7.4 mph 11.5 mph 64 % 0.00 in
00:38 29.9 °F 19.6 °F 30.24 in NW 8.8 mph 16.1 mph 65 % 0.00 in
00:43 29.9 °F 19.6 °F 30.24 in West 3.4 mph 8.1 mph 65 % 0.00 in
00:48 29.8 °F 19.5 °F 30.24 in NW 6.0 mph 10.4 mph 65 % 0.00 in
00:53 29.8 °F 19.8 °F 30.24 in NNW 5.2 mph 11.5 mph 66 % 0.00 in
00:58 29.8 °F 19.8 °F 30.24 in NNE 8.4 mph 16.0 mph 66 % 0.00 in
01:03 29.8 °F 19.5 °F 30.24 in WNW 5.5 mph 13.0 mph 65 % 0.00 in
01:08 29.8 °F 19.8 °F 30.24 in WNW 6.2 mph 12.7 mph 66 % 0.00 in
01:13 29.8 °F 19.5 °F 30.24 in NW 5.1 mph 11.5 mph 65 % 0.00 in
01:19 29.8 °F 19.8 °F 30.24 in NW 5.5 mph 11.5 mph 66 % 0.00 in
01:24 29.7 °F 19.7 °F 30.25 in WNW 6.2 mph 10.4 mph 66 % 0.00 in
01:29 29.7 °F 19.7 °F 30.25 in NW 2.6 mph 11.5 mph 66 % 0.00 in
01:34 29.7 °F 19.7 °F 30.25 in West 6.5 mph 14.0 mph 66 % 0.00 in
01:39 29.7 °F 19.4 °F 30.25 in NNW 6.9 mph 10.4 mph 65 % 0.00 in
01:44 29.6 °F 19.6 °F 30.26 in NNW 5.1 mph 8.1 mph 66 % 0.00 in
01:49 29.6 °F 19.3 °F 30.26 in WNW 4.9 mph 7.0 mph 65 % 0.00 in
01:54 29.6 °F 19.6 °F 30.26 in NW 4.4 mph 5.8 mph 66 % 0.00 in
01:59 29.6 °F 19.6 °F 30.26 in WNW 5.9 mph 9.2 mph 66 % 0.00 in
02:04 29.6 °F 19.3 °F 30.27 in West 6.1 mph 10.4 mph 65 % 0.00 in
02:10 29.6 °F 19.6 °F 30.27 in WNW 6.0 mph 12.0 mph 66 % 0.00 in
02:14 29.7 °F 19.7 °F 30.27 in WNW 3.6 mph 9.2 mph 66 % 0.00 in
02:20 29.6 °F 19.3 °F 30.27 in NW 3.0 mph 10.0 mph 65 % 0.00 in
02:25 29.6 °F 19.3 °F 30.27 in NW 5.0 mph 12.0 mph 65 % 0.00 in
02:30 29.6 °F 19.3 °F 30.27 in NW 6.0 mph 12.0 mph 65 % 0.00 in
02:35 29.6 °F 19.6 °F 30.28 in NW 3.0 mph 9.0 mph 66 % 0.00 in
02:40 29.6 °F 19.3 °F 30.28 in WNW 3.0 mph 7.0 mph 65 % 0.00 in
02:45 29.6 °F 19.2 °F 30.28 in West 5.0 mph 10.0 mph 65 % 0.00 in
02:50 29.5 °F 19.5 °F 30.28 in WNW 5.0 mph 10.0 mph 66 % 0.00 in
02:55 29.5 °F 19.9 °F 30.28 in WNW 3.0 mph 9.0 mph 67 % 0.00 in
03:00 29.5 °F 19.9 °F 30.28 in West 3.6 mph 6.9 mph 67 % 0.00 in
03:05 29.5 °F 20.2 °F 30.28 in NW 5.0 mph 11.5 mph 68 % 0.00 in
03:10 29.4 °F 19.8 °F 30.28 in WNW 2.3 mph 9.2 mph 67 % 0.00 in
03:15 29.4 °F 19.8 °F 30.28 in WNW 6.1 mph 10.4 mph 67 % 0.00 in
03:22 29.4 °F 19.4 °F 30.28 in West 6.1 mph 11.5 mph 66 % 0.00 in
03:27 29.4 °F 19.8 °F 30.28 in WNW 2.9 mph 5.8 mph 67 % 0.00 in
03:32 29.4 °F 19.8 °F 30.28 in WNW 6.8 mph 11.5 mph 67 % 0.00 in
03:37 29.3 °F 19.7 °F 30.28 in WNW 4.4 mph 10.4 mph 67 % 0.00 in
03:42 29.3 °F 20.0 °F 30.28 in NW 5.0 mph 12.7 mph 68 % 0.00 in
03:47 29.3 °F 20.0 °F 30.28 in NW 5.8 mph 10.0 mph 68 % 0.00 in
03:52 29.3 °F 20.0 °F 30.28 in WNW 5.6 mph 11.5 mph 68 % 0.00 in
03:58 29.3 °F 19.7 °F 30.28 in NNW 3.7 mph 19.6 mph 67 % 0.00 in
04:03 29.3 °F 19.7 °F 30.28 in WNW 3.3 mph 8.1 mph 67 % 0.00 in
04:08 29.3 °F 20.0 °F 30.28 in WNW 5.9 mph 9.2 mph 68 % 0.00 in
04:13 29.2 °F 20.3 °F 30.28 in West 5.8 mph 10.4 mph 69 % 0.00 in
04:18 29.2 °F 19.9 °F 30.29 in NW 4.6 mph 11.5 mph 68 % 0.00 in
04:23 29.2 °F 19.9 °F 30.29 in WNW 5.7 mph 8.1 mph 68 % 0.00 in
04:28 29.1 °F 20.2 °F 30.29 in NW 2.3 mph 6.9 mph 69 % 0.00 in
04:33 29.1 °F 20.5 °F 30.29 in NW 3.9 mph 5.8 mph 70 % 0.00 in
04:38 29.0 °F 20.4 °F 30.28 in West 6.0 mph 10.4 mph 70 % 0.00 in
04:43 28.9 °F 20.0 °F 30.29 in WNW 6.2 mph 14.0 mph 69 % 0.00 in
04:49 29.0 °F 20.1 °F 30.29 in WNW 7.1 mph 9.2 mph 69 % 0.00 in
04:54 29.0 °F 20.4 °F 30.30 in NW 2.4 mph 11.5 mph 70 % 0.00 in
04:59 29.0 °F 20.1 °F 30.30 in WNW 5.2 mph 9.2 mph 69 % 0.00 in
05:04 29.0 °F 20.1 °F 30.30 in WNW 6.8 mph 9.2 mph 69 % 0.00 in
05:09 29.1 °F 20.2 °F 30.30 in West 4.8 mph 10.4 mph 69 % 0.00 in
05:14 29.1 °F 19.8 °F 30.30 in West 4.9 mph 9.2 mph 68 % 0.00 in
05:19 29.1 °F 20.2 °F 30.30 in West 5.7 mph 11.0 mph 69 % 0.00 in
05:25 29.1 °F 20.2 °F 30.30 in WNW 7.0 mph 14.0 mph 69 % 0.00 in
05:30 29.2 °F 19.9 °F 30.30 in WNW 7.4 mph 11.0 mph 68 % 0.00 in
05:35 29.2 °F 19.9 °F 30.30 in West 5.0 mph 15.0 mph 68 % 0.00 in
05:40 29.2 °F 19.9 °F 30.30 in West 6.0 mph 12.0 mph 68 % 0.00 in
05:45 29.2 °F 20.6 °F 30.30 in NW 2.6 mph 5.8 mph 70 % 0.00 in
05:50 29.2 °F 20.3 °F 30.31 in WNW 5.0 mph 14.0 mph 69 % 0.00 in
05:55 29.2 °F 19.9 °F 30.31 in NW 2.0 mph 13.0 mph 68 % 0.00 in
06:00 29.2 °F 20.3 °F 30.31 in WNW 4.5 mph 11.5 mph 69 % 0.00 in
06:05 29.2 °F 20.3 °F 30.31 in WNW 8.0 mph 15.0 mph 69 % 0.00 in
06:10 29.2 °F 20.3 °F 30.31 in WNW 6.0 mph 13.0 mph 69 % 0.00 in
06:15 29.2 °F 19.9 °F 30.31 in West 7.0 mph 12.0 mph 68 % 0.00 in
06:20 29.2 °F 20.3 °F 30.32 in West 6.0 mph 12.0 mph 69 % 0.00 in
06:25 29.1 °F 20.5 °F 30.32 in West 6.0 mph 12.0 mph 70 % 0.00 in
06:30 29.1 °F 20.5 °F 30.32 in WNW 2.0 mph 12.0 mph 70 % 0.00 in
06:35 29.0 °F 20.8 °F 30.32 in WNW 3.0 mph 13.0 mph 71 % 0.00 in
06:40 29.0 °F 20.8 °F 30.32 in WNW 4.4 mph 10.4 mph 71 % 0.00 in
06:45 29.0 °F 20.8 °F 30.33 in West 7.9 mph 10.4 mph 71 % 0.00 in
06:50 28.9 °F 21.0 °F 30.33 in WNW 3.4 mph 11.5 mph 72 % 0.00 in
06:55 28.9 °F 21.0 °F 30.33 in West 7.4 mph 11.5 mph 72 % 0.00 in
07:00 28.9 °F 21.0 °F 30.33 in NW 8.1 mph 11.5 mph 72 % 0.00 in
07:05 28.9 °F 21.0 °F 30.33 in West 4.0 mph 6.9 mph 72 % 0.00 in
07:10 28.9 °F 21.0 °F 30.34 in NW 4.9 mph 9.2 mph 72 % 0.00 in
07:15 28.9 °F 21.3 °F 30.34 in WNW 4.3 mph 6.9 mph 73 % 0.00 in
07:20 28.9 °F 21.3 °F 30.34 in NW 3.4 mph 3.5 mph 73 % 0.00 in
07:25 28.9 °F 21.3 °F 30.34 in WNW 3.2 mph 8.1 mph 73 % 0.00 in
07:30 28.9 °F 21.3 °F 30.34 in West 1.9 mph 4.0 mph 73 % 0.00 in
07:36 28.9 °F 21.3 °F 30.34 in West 4.7 mph 11.5 mph 73 % 0.00 in
07:41 29.0 °F 21.1 °F 30.34 in WNW 4.7 mph 10.4 mph 72 % 0.00 in
07:46 29.0 °F 21.1 °F 30.34 in WNW 5.5 mph 9.2 mph 72 % 0.00 in
07:51 29.1 °F 20.9 °F 30.34 in WNW 3.1 mph 7.0 mph 71 % 0.00 in
07:56 29.2 °F 21.0 °F 30.34 in WNW 3.5 mph 8.0 mph 71 % 0.00 in
08:01 29.2 °F 21.0 °F 30.34 in WSW 4.6 mph 9.2 mph 71 % 0.00 in
08:06 29.3 °F 21.1 °F 30.34 in SW 2.0 mph 5.8 mph 71 % 0.00 in
08:11 29.4 °F 20.8 °F 30.34 in SW 6.3 mph 10.0 mph 70 % 0.00 in
08:16 29.6 °F 21.0 °F 30.34 in West 5.1 mph 8.1 mph 70 % 0.00 in
08:21 29.7 °F 21.1 °F 30.35 in WNW 7.2 mph 8.1 mph 70 % 0.00 in
08:27 29.8 °F 20.9 °F 30.35 in WSW 5.5 mph 9.2 mph 69 % 0.00 in
08:32 30.0 °F 20.7 °F 30.35 in NW 4.9 mph 9.2 mph 68 % 0.00 in
08:37 30.1 °F 20.8 °F 30.35 in NW 4.1 mph 10.4 mph 68 % 0.00 in
08:42 30.3 °F 21.0 °F 30.35 in West 5.5 mph 10.4 mph 68 % 0.00 in
08:47 30.5 °F 20.8 °F 30.35 in WNW 5.7 mph 11.5 mph 67 % 0.00 in
08:52 30.6 °F 20.6 °F 30.36 in WNW 8.4 mph 12.7 mph 66 % 0.00 in
08:57 30.7 °F 20.7 °F 30.35 in West 5.2 mph 10.4 mph 66 % 0.00 in
09:02 30.8 °F 20.8 °F 30.36 in NW 6.9 mph 13.8 mph 66 % 0.00 in
09:07 31.0 °F 20.6 °F 30.36 in North 4.5 mph 11.5 mph 65 % 0.00 in
09:12 31.1 °F 20.7 °F 30.36 in SW 9.4 mph 13.8 mph 65 % 0.00 in
09:18 31.2 °F 20.4 °F 30.36 in West 9.3 mph 14.0 mph 64 % 0.00 in
09:23 31.4 °F 20.2 °F 30.36 in West 9.1 mph 16.1 mph 63 % 0.00 in
09:28 31.4 °F 20.6 °F 30.36 in WSW 4.1 mph 11.5 mph 64 % 0.00 in
09:33 31.5 °F 20.3 °F 30.36 in WNW 6.5 mph 11.5 mph 63 % 0.00 in
09:38 31.6 °F 20.4 °F 30.36 in West 9.3 mph 17.0 mph 63 % 0.00 in
09:43 31.7 °F 20.2 °F 30.36 in SW 4.6 mph 11.5 mph 62 % 0.00 in
09:48 31.8 °F 20.3 °F 30.36 in WNW 5.4 mph 12.7 mph 62 % 0.00 in
09:53 31.9 °F 20.3 °F 30.36 in WNW 3.6 mph 11.5 mph 62 % 0.00 in
09:58 32.0 °F 20.1 °F 30.35 in WNW 6.4 mph 11.5 mph 61 % 0.00 in
10:03 32.3 °F 21.1 °F 30.35 in West 6.3 mph 13.0 mph 63 % 0.00 in
10:09 32.5 °F 20.9 °F 30.36 in NNW 8.3 mph 12.7 mph 62 % 0.00 in
10:14 32.7 °F 21.5 °F 30.36 in WSW 8.4 mph 16.1 mph 63 % 0.00 in
10:19 32.9 °F 21.3 °F 30.36 in WNW 4.1 mph 9.2 mph 62 % 0.00 in
10:24 33.1 °F 21.1 °F 30.36 in WNW 7.2 mph 12.7 mph 61 % 0.00 in
10:29 33.1 °F 21.1 °F 30.35 in WSW 3.4 mph 7.0 mph 61 % 0.00 in
10:34 33.1 °F 21.1 °F 30.36 in WNW 6.4 mph 10.4 mph 61 % 0.00 in
10:39 33.1 °F 21.1 °F 30.35 in NW 6.9 mph 12.7 mph 61 % 0.00 in
10:44 33.1 °F 21.1 °F 30.35 in West 7.0 mph 11.5 mph 61 % 0.00 in
10:49 33.0 °F 21.0 °F 30.34 in NW 4.9 mph 8.1 mph 61 % 0.00 in
10:54 33.0 °F 20.6 °F 30.34 in WNW 7.0 mph 11.5 mph 60 % 0.00 in
10:59 32.9 °F 20.5 °F 30.34 in WSW 9.1 mph 11.5 mph 60 % 0.00 in
11:05 32.8 °F 20.8 °F 30.34 in WNW 5.3 mph 13.0 mph 61 % 0.00 in
11:10 32.8 °F 20.0 °F 30.34 in WNW 5.0 mph 13.0 mph 59 % 0.00 in
11:15 33.0 °F 19.8 °F 30.34 in WNW 7.0 mph 17.0 mph 58 % 0.00 in
11:20 33.2 °F 20.0 °F 30.34 in WSW 3.5 mph 11.5 mph 58 % 0.00 in
11:25 33.4 °F 20.2 °F 30.33 in West 6.0 mph 14.0 mph 58 % 0.00 in
11:30 33.5 °F 19.8 °F 30.33 in West 5.0 mph 13.0 mph 57 % 0.00 in
11:35 33.4 °F 19.8 °F 30.33 in West 6.2 mph 11.0 mph 57 % 0.00 in
11:40 33.4 °F 19.8 °F 30.33 in West 5.0 mph 10.0 mph 57 % 0.00 in
11:45 33.4 °F 19.8 °F 30.33 in WNW 7.0 mph 14.0 mph 57 % 0.00 in
11:50 33.5 °F 19.5 °F 30.33 in West 7.2 mph 10.4 mph 56 % 0.00 in
11:55 33.7 °F 19.7 °F 30.33 in WNW 3.0 mph 13.0 mph 56 % 0.00 in
12:00 34.1 °F 20.4 °F 30.32 in WNW 3.2 mph 5.0 mph 57 % 0.00 in
12:05 34.5 °F 20.0 °F 30.32 in WSW 8.1 mph 12.7 mph 55 % 0.00 in
12:10 34.6 °F 20.1 °F 30.32 in WNW 6.1 mph 9.2 mph 55 % 0.00 in
12:15 34.6 °F 20.1 °F 30.32 in West 6.0 mph 10.0 mph 55 % 0.00 in
12:20 34.6 °F 20.5 °F 30.31 in West 2.7 mph 10.4 mph 56 % 0.00 in
12:25 34.8 °F 20.3 °F 30.32 in WSW 7.7 mph 10.4 mph 55 % 0.00 in
12:30 35.0 °F 20.4 °F 30.31 in WNW 5.9 mph 9.2 mph 55 % 0.00 in
12:35 35.3 °F 20.7 °F 30.31 in WNW 2.2 mph 4.6 mph 55 % 0.00 in
12:40 35.5 °F 20.5 °F 30.31 in NW 6.6 mph 12.7 mph 54 % 0.00 in
12:45 35.5 °F 19.6 °F 30.31 in WNW 6.0 mph 11.5 mph 52 % 0.00 in
12:50 35.6 °F 19.7 °F 30.31 in WNW 7.5 mph 8.1 mph 52 % 0.00 in
12:56 35.7 °F 19.8 °F 30.31 in West 4.7 mph 6.0 mph 52 % 0.00 in
13:01 35.7 °F 20.2 °F 30.31 in WNW 7.0 mph 9.2 mph 53 % 0.00 in
13:06 35.7 °F 20.2 °F 30.30 in WNW 6.3 mph 8.1 mph 53 % 0.00 in
13:11 35.7 °F 20.2 °F 30.30 in WSW 4.2 mph 11.5 mph 53 % 0.00 in
13:16 35.5 °F 20.5 °F 30.30 in West 4.5 mph 8.1 mph 54 % 0.00 in
13:21 35.3 °F 20.3 °F 30.30 in NW 5.0 mph 8.1 mph 54 % 0.00 in
13:26 35.2 °F 20.6 °F 30.30 in NW 5.6 mph 8.1 mph 55 % 0.00 in
13:31 35.2 °F 21.1 °F 30.30 in NW 5.6 mph 9.0 mph 56 % 0.00 in
13:36 35.1 °F 20.5 °F 30.30 in WNW 6.9 mph 10.4 mph 55 % 0.00 in
13:41 35.1 °F 21.0 °F 30.30 in NW 3.3 mph 3.5 mph 56 % 0.00 in
13:46 35.2 °F 21.1 °F 30.30 in WNW 1.1 mph 4.0 mph 56 % 0.00 in
13:51 35.2 °F 21.1 °F 30.30 in WNW 7.1 mph 11.5 mph 56 % 0.00 in
13:57 35.1 °F 20.5 °F 30.30 in WNW 6.3 mph 11.5 mph 55 % 0.00 in
14:02 35.2 °F 21.1 °F 30.30 in WNW 6.4 mph 11.5 mph 56 % 0.00 in
14:07 35.1 °F 21.4 °F 30.31 in West 6.1 mph 9.2 mph 57 % 0.00 in
14:12 35.1 °F 21.4 °F 30.31 in WSW 3.9 mph 6.9 mph 57 % 0.00 in
14:17 35.1 °F 21.0 °F 30.31 in NNW 3.9 mph 6.9 mph 56 % 0.00 in
14:22 35.0 °F 20.4 °F 30.31 in NW 7.6 mph 13.8 mph 55 % 0.00 in
14:27 35.0 °F 20.9 °F 30.31 in NW 4.0 mph 11.5 mph 56 % 0.00 in
14:32 35.0 °F 21.3 °F 30.31 in SW 7.9 mph 12.0 mph 57 % 0.00 in
14:37 35.0 °F 21.7 °F 30.31 in NW 5.1 mph 10.0 mph 58 % 0.00 in
14:42 35.0 °F 21.3 °F 30.31 in WNW 4.5 mph 11.5 mph 57 % 0.00 in
14:48 34.9 °F 21.2 °F 30.31 in NW 5.0 mph 10.4 mph 57 % 0.00 in
14:53 34.9 °F 21.6 °F 30.31 in SW 6.8 mph 11.5 mph 58 % 0.00 in
14:58 34.9 °F 21.2 °F 30.31 in West 6.5 mph 10.4 mph 57 % 0.00 in
15:03 34.8 °F 21.1 °F 30.31 in WNW 6.5 mph 11.5 mph 57 % 0.00 in
15:08 34.8 °F 20.7 °F 30.31 in WNW 3.8 mph 5.8 mph 56 % 0.00 in
15:13 34.8 °F 21.5 °F 30.32 in WNW 6.8 mph 12.0 mph 58 % 0.00 in
15:18 34.8 °F 21.5 °F 30.31 in WNW 3.7 mph 12.0 mph 58 % 0.00 in
15:23 34.9 °F 22.0 °F 30.32 in WNW 0.6 mph 2.3 mph 59 % 0.00 in
15:28 35.0 °F 21.3 °F 30.32 in WSW 6.7 mph 9.2 mph 57 % 0.00 in
15:33 35.0 °F 21.3 °F 30.32 in West 5.9 mph 12.7 mph 57 % 0.00 in
15:39 34.9 °F 21.2 °F 30.32 in West 8.7 mph 11.5 mph 57 % 0.00 in
15:44 34.8 °F 21.5 °F 30.33 in West 4.6 mph 9.2 mph 58 % 0.00 in
15:49 34.6 °F 20.9 °F 30.33 in WSW 7.1 mph 11.5 mph 57 % 0.00 in
15:54 34.6 °F 21.3 °F 30.33 in WSW 3.8 mph 11.5 mph 58 % 0.00 in
15:59 34.5 °F 20.8 °F 30.33 in West 6.5 mph 9.0 mph 57 % 0.00 in
16:04 34.4 °F 20.7 °F 30.33 in West 6.3 mph 10.4 mph 57 % 0.00 in
16:09 34.4 °F 21.1 °F 30.33 in NW 4.6 mph 9.0 mph 58 % 0.00 in
16:14 34.2 °F 20.5 °F 30.33 in WNW 3.4 mph 10.4 mph 57 % 0.00 in
16:19 34.1 °F 20.9 °F 30.33 in West 3.4 mph 5.8 mph 58 % 0.00 in
16:24 34.0 °F 20.8 °F 30.33 in NNW 2.7 mph 9.2 mph 58 % 0.00 in
16:29 33.9 °F 21.1 °F 30.33 in WNW 5.5 mph 11.5 mph 59 % 0.00 in
16:35 33.8 °F 21.0 °F 30.33 in WNW 5.0 mph 10.0 mph 59 % 0.00 in
16:39 33.7 °F 20.9 °F 30.34 in WSW 7.0 mph 11.5 mph 59 % 0.00 in
16:45 33.7 °F 20.9 °F 30.34 in West 6.0 mph 14.0 mph 59 % 0.00 in
16:50 33.6 °F 21.2 °F 30.34 in West 5.5 mph 11.5 mph 60 % 0.00 in
16:55 33.6 °F 21.6 °F 30.35 in WNW 3.8 mph 8.1 mph 61 % 0.00 in
17:00 33.5 °F 21.9 °F 30.35 in WSW 0.2 mph 5.8 mph 62 % 0.00 in
17:05 33.5 °F 21.9 °F 30.35 in WNW 5.1 mph 9.2 mph 62 % 0.00 in
17:10 33.5 °F 21.9 °F 30.35 in WNW 5.0 mph 6.0 mph 62 % 0.00 in
17:15 33.5 °F 21.9 °F 30.35 in WNW 4.4 mph 8.1 mph 62 % 0.00 in
17:20 33.5 °F 21.9 °F 30.35 in WNW 2.6 mph 3.5 mph 62 % 0.00 in
17:25 33.4 °F 21.8 °F 30.35 in WNW 2.4 mph 5.8 mph 62 % 0.00 in
17:30 33.4 °F 21.8 °F 30.35 in WNW 4.2 mph 8.1 mph 62 % 0.00 in
17:35 33.3 °F 21.7 °F 30.36 in WNW 2.7 mph 5.0 mph 62 % 0.00 in
17:40 33.3 °F 22.1 °F 30.36 in West 3.2 mph 3.5 mph 63 % 0.00 in
17:46 33.2 °F 22.0 °F 30.36 in WSW 5.2 mph 5.8 mph 63 % 0.00 in
17:51 33.1 °F 21.9 °F 30.36 in West 3.8 mph 4.6 mph 63 % 0.00 in
17:56 33.1 °F 22.2 °F 30.36 in WNW 2.3 mph 6.9 mph 64 % 0.00 in
18:01 33.0 °F 22.5 °F 30.36 in West 1.9 mph 3.5 mph 65 % 0.00 in
18:06 33.0 °F 22.5 °F 30.37 in West 0.7 mph 3.5 mph 65 % 0.00 in
18:11 32.9 °F 22.8 °F 30.37 in West 1.4 mph 3.5 mph 66 % 0.00 in
18:16 32.8 °F 22.7 °F 30.37 in WNW 4.8 mph 9.2 mph 66 % 0.00 in
18:21 32.8 °F 22.7 °F 30.37 in WSW 1.1 mph 5.8 mph 66 % 0.00 in
18:26 32.8 °F 22.7 °F 30.37 in WSW 3.1 mph 5.8 mph 66 % 0.00 in
18:31 32.9 °F 22.8 °F 30.37 in WNW 2.9 mph 5.8 mph 66 % 0.00 in
18:37 32.9 °F 22.4 °F 30.37 in WNW 1.7 mph 5.8 mph 65 % 0.00 in
18:42 32.9 °F 22.4 °F 30.38 in WSW 5.8 mph 10.4 mph 65 % 0.00 in
18:47 32.9 °F 22.8 °F 30.38 in WNW 5.2 mph 10.4 mph 66 % 0.00 in
18:52 33.0 °F 23.2 °F 30.38 in West 3.9 mph 9.2 mph 67 % 0.00 in
18:57 32.9 °F 23.1 °F 30.38 in West 4.0 mph 5.8 mph 67 % 0.00 in
19:02 33.0 °F 23.2 °F 30.38 in WNW 5.3 mph 8.1 mph 67 % 0.00 in
19:07 32.9 °F 23.1 °F 30.38 in WNW 3.7 mph 5.8 mph 67 % 0.00 in
19:12 32.9 °F 22.8 °F 30.38 in West 6.1 mph 9.2 mph 66 % 0.00 in
19:17 32.9 °F 22.8 °F 30.38 in WNW 2.4 mph 8.1 mph 66 % 0.00 in
19:22 32.9 °F 22.8 °F 30.38 in WNW 3.5 mph 10.4 mph 66 % 0.00 in
19:28 32.9 °F 23.1 °F 30.38 in WSW 3.8 mph 8.1 mph 67 % 0.00 in
19:33 32.9 °F 23.1 °F 30.39 in WNW 3.0 mph 6.9 mph 67 % 0.00 in
19:38 32.9 °F 23.5 °F 30.39 in West 4.9 mph 6.9 mph 68 % 0.00 in
19:43 32.9 °F 23.1 °F 30.39 in West 4.4 mph 8.1 mph 67 % 0.00 in
19:48 32.9 °F 23.5 °F 30.39 in WSW 2.3 mph 5.8 mph 68 % 0.00 in
19:53 32.9 °F 23.5 °F 30.39 in WNW 4.1 mph 6.9 mph 68 % 0.00 in
19:58 32.8 °F 23.4 °F 30.40 in West 2.9 mph 5.8 mph 68 % 0.00 in
20:03 32.8 °F 23.0 °F 30.40 in WNW 1.6 mph 8.1 mph 67 % 0.00 in
20:08 32.8 °F 22.7 °F 30.40 in WNW 1.9 mph 5.8 mph 66 % 0.00 in
20:13 32.7 °F 22.9 °F 30.40 in NW 0.8 mph 5.8 mph 67 % 0.00 in
20:19 32.7 °F 23.3 °F 30.40 in WNW 6.2 mph 10.0 mph 68 % 0.00 in
20:24 32.7 °F 22.9 °F 30.40 in West 4.7 mph 9.2 mph 67 % 0.00 in
20:29 32.7 °F 23.3 °F 30.40 in WNW 6.0 mph 10.4 mph 68 % 0.00 in
20:34 32.7 °F 23.3 °F 30.40 in WNW 4.0 mph 9.2 mph 68 % 0.00 in
20:39 32.7 °F 23.3 °F 30.40 in NW 2.7 mph 10.4 mph 68 % 0.00 in
20:44 32.7 °F 23.6 °F 30.40 in WNW 6.1 mph 9.0 mph 69 % 0.00 in
20:49 32.7 °F 23.6 °F 30.40 in WSW 5.7 mph 7.0 mph 69 % 0.00 in
20:55 32.6 °F 23.6 °F 30.40 in West 5.0 mph 8.0 mph 69 % 0.00 in
20:59 32.6 °F 22.8 °F 30.40 in WNW 4.2 mph 5.8 mph 67 % 0.00 in
21:05 32.6 °F 23.2 °F 30.40 in WNW 3.0 mph 12.0 mph 68 % 0.00 in
21:09 32.6 °F 22.8 °F 30.40 in WNW 3.0 mph 9.0 mph 67 % 0.00 in
21:14 32.6 °F 22.8 °F 30.40 in WNW 7.3 mph 12.7 mph 67 % 0.00 in
21:20 32.7 °F 22.9 °F 30.39 in West 2.0 mph 8.0 mph 67 % 0.00 in
21:25 32.6 °F 22.9 °F 30.39 in WNW 3.0 mph 8.0 mph 67 % 0.00 in
21:30 32.6 °F 22.8 °F 30.40 in WNW 1.0 mph 5.0 mph 67 % 0.00 in
21:35 32.5 °F 22.8 °F 30.39 in WNW 3.0 mph 9.0 mph 67 % 0.00 in
21:39 32.5 °F 23.1 °F 30.40 in WNW 5.0 mph 8.0 mph 68 % 0.00 in
21:44 32.4 °F 23.0 °F 30.40 in NW 2.4 mph 7.0 mph 68 % 0.00 in
21:50 32.3 °F 23.3 °F 30.40 in West 2.0 mph 5.0 mph 69 % 0.00 in
21:55 32.3 °F 23.3 °F 30.40 in WNW 3.0 mph 9.0 mph 69 % 0.00 in
21:59 32.2 °F 23.2 °F 30.40 in WNW 4.4 mph 11.5 mph 69 % 0.00 in
22:05 32.1 °F 22.7 °F 30.40 in West 1.0 mph 12.0 mph 68 % 0.00 in
22:10 32.1 °F 22.7 °F 30.41 in West 3.0 mph 6.0 mph 68 % 0.00 in
22:14 32.0 °F 23.0 °F 30.41 in West 3.0 mph 7.0 mph 69 % 0.00 in
22:19 31.9 °F 22.9 °F 30.41 in West 3.0 mph 7.0 mph 69 % 0.00 in
22:25 31.9 °F 22.9 °F 30.41 in West 2.0 mph 6.0 mph 69 % 0.00 in
22:29 31.8 °F 23.1 °F 30.41 in WSW 2.6 mph 4.6 mph 70 % 0.00 in
22:34 31.8 °F 23.1 °F 30.42 in West 5.0 mph 9.0 mph 70 % 0.00 in
22:40 31.7 °F 23.4 °F 30.42 in WNW 5.0 mph 8.0 mph 71 % 0.00 in
22:44 31.7 °F 23.4 °F 30.42 in WNW 3.4 mph 5.8 mph 71 % 0.00 in
22:50 31.7 °F 23.7 °F 30.42 in WNW 3.0 mph 7.0 mph 72 % 0.00 in
22:54 31.7 °F 23.7 °F 30.43 in WNW 2.0 mph 6.0 mph 72 % 0.00 in
22:59 31.6 °F 23.9 °F 30.42 in WNW 4.4 mph 8.1 mph 73 % 0.00 in
23:05 31.6 °F 23.9 °F 30.43 in WNW 6.0 mph 10.0 mph 73 % 0.00 in
23:09 31.6 °F 23.9 °F 30.42 in West 5.0 mph 10.0 mph 73 % 0.00 in
23:14 31.6 °F 23.9 °F 30.42 in West 5.7 mph 11.0 mph 73 % 0.00 in
23:20 31.5 °F 23.8 °F 30.42 in West 3.0 mph 9.0 mph 73 % 0.00 in
23:25 31.5 °F 24.2 °F 30.43 in West 2.3 mph 5.8 mph 74 % 0.00 in
23:30 31.4 °F 24.1 °F 30.43 in WNW 4.1 mph 6.9 mph 74 % 0.00 in
23:35 31.4 °F 24.1 °F 30.43 in WNW 2.0 mph 3.5 mph 74 % 0.00 in
23:40 31.3 °F 24.0 °F 30.43 in WNW 1.8 mph 4.6 mph 74 % 0.00 in
23:45 31.2 °F 23.9 °F 30.43 in WSW 3.7 mph 6.9 mph 74 % 0.00 in
23:50 31.2 °F 23.9 °F 30.43 in WSW 4.5 mph 6.0 mph 74 % 0.00 in
23:55 31.1 °F 24.1 °F 30.43 in West 2.5 mph 3.5 mph 75 % 0.00 in
Crab Meadow Weather
Compliments of Weather Underground - 3 mb

Script developed by  Jim McMurry - jmcmurry@mwt.net Adapted for the template by  Wim van der Kuil - Leuven-Template.eu

Weather Terms: Winter Storm Warning - Hazardous winter weather conditions that pose a threat to life and/or property are occurring, imminent or likely. The generic term, winter storm warning, is used for a combination of two or more of the following winter weather events; heavy snow, freezing rain, sleet and strong winds.